Flag for U.S.A. Weather past 2 weeks in Fort Worth, Texas, U.S.A.

Now
56 °F

Clear.


Feels Like: 56 °F
Forecast: 51 / 82 °F
Wind: 3 mph from South

Location: Meacham International Airport

Current Time: Jan 28, 2015 at 3:51:11 AM

Latest Report: Jan 28, 2015 at 2:53 AM


Visibility: 10 mi

Pressure: 30.07 "Hg

Humidity: 55%

Dew point: 40 °F

Location of Fort WorthLocation

Historic Weather in Fort Worth — Graph

°F

Fort Worth temperature yesterday

Maximum temperature yesterday: 78 °F (at 3:53 PM)
Minimum temperature yesterday: 50 °F (at 5:53 AM)
Average temperature yesterday: 64 °F

Past Weeks' High & Low Weather Summary

 TemperatureHumidityPressure
High78 °F (Jan 27, 3:53 PM)93% (Jan 21, 11:55 PM)30.52 "Hg (Jan 21, 11:55 PM)
Low32 °F (Jan 13, 7:53 AM)16% (Jan 18, 4:53 PM)29.90 "Hg (Jan 20, 4:53 AM)
Average50 °F57%30.17 "Hg
* Reported Jan 13 2:53 AM — Jan 28 2:53 AM, Fort Worth, Weather by CustomWeather, © 2014

Note: Actual official high and low records may vary slightly from our data, if they occured in-between our weather recording intervals... More about our weather records

Advertising

Fort Worth weather history for previous 24 hours

 ConditionsComfort  
Time TempWeatherWind HumidityBarometerVisibility
2:53 AM
Jan 28
56 °FClear.3 mph55%30.07 "Hg10 mi
1:53 AM58 °FClear.No wind51%30.08 "Hg10 mi
12:53 AM60 °FClear.3 mph47%30.09 "Hg10 mi
11:53 PM
Jan 27
60 °FClear.3 mph47%30.09 "Hg10 mi
10:53 PM61 °FClear.No wind44%30.09 "Hg10 mi
9:53 PM64 °FClear.5 mph40%30.09 "Hg10 mi
8:53 PM66 °FClear.3 mph37%30.09 "Hg10 mi
7:53 PM67 °FClear.3 mph36%30.09 "Hg9 mi
6:53 PM68 °FClear.6 mph32%30.09 "Hg10 mi
5:53 PM74 °FSunny.6 mph25%30.08 "Hg10 mi
4:53 PM77 °FSunny.5 mph24%30.08 "Hg10 mi
3:53 PM78 °FSunny.5 mph25%30.09 "Hg10 mi
2:53 PM77 °FSunny.6 mph26%30.10 "Hg10 mi
1:53 PM76 °FSunny.3 mph26%30.11 "Hg10 mi
12:53 PM75 °FSunny.3 mph28%30.13 "Hg10 mi
11:53 AM73 °FSunny.3 mph32%30.16 "Hg10 mi
10:53 AM70 °FSunny.5 mph35%30.18 "Hg9 mi
9:53 AM64 °FSunny.5 mph40%30.17 "Hg10 mi
8:53 AM59 °FSunny.8 mph46%30.16 "Hg10 mi
7:53 AM53 °FSunny.6 mph55%30.14 "Hg10 mi
6:53 AM51 °FClear.7 mph59%30.12 "Hg10 mi
5:53 AM50 °FClear.6 mph61%30.09 "Hg10 mi
4:53 AM52 °FClear.3 mph57%30.07 "Hg10 mi
3:53 AM52 °FClear.6 mph57%30.07 "Hg10 mi
Weather by CustomWeather, © 2014

See weather overviewHow to use our weather pages